Home > Time Zones > World Clock > Weather > Spain > Lugo > Past weeks

Flag for Spain Weather past 2 weeks in Lugo, Galicia, Spain

Now
52 °F

Scattered clouds.


Feels Like: 51 °F
Forecast: 37 / 62 °F
Wind: 3 mph from North

Location: Santiago / Labacolla


UV Index: 5 (Moderate)

Visibility: N/A


Pressure: 29.71 "Hg

Humidity: 82%

Dew point: 46 °F

Location of LugoLocation

Historic Weather in Lugo

°F

Lugo temperature yesterday

Maximum temperature yesterday: 57 °F (at 4:30 PM)
Minimum temperature yesterday: 46 °F (at 10:30 PM)
Average temperature yesterday: 51 °F

Past Weeks' High & Low Weather Summary

 TemperatureHumidityPressure
High81 °F (Apr 9, 5:30 PM)100% (Apr 7, 12:30 PM)30.27 "Hg (Apr 7, 12:30 PM)
Low39 °F (Apr 21, 5:30 AM)30% (Apr 9, 5:30 PM)29.62 "Hg (Apr 20, 5:30 PM)
Average57 °F78%30.01 "Hg
* Reported Apr 6 5:00 PM — Apr 21 5:00 PM, Lugo, Weather by CustomWeather, © 2014

Note: Actual official high and low records may vary slightly from our data, if they occured in-between our weather recording intervals... More about our weather records

Advertising

Historic Weather Conditions — Data for Previous 24 hours

 ConditionsComfort  
Time TempWeatherWind HumidityBarometerVisibility
5:00 PM
Apr 21
54 °FBroken clouds.2 mph77%29.71 "Hg6 mi
4:30 PM52 °FLight rain. Broken clouds.No wind88%29.71 "Hg3 mi
4:00 PM52 °FSprinkles. Broken clouds.6 mph88%29.71 "HgN/A
3:30 PM54 °FBroken clouds.2 mph77%29.68 "HgN/A
3:00 PM54 °FScattered clouds.1 mph77%29.68 "HgN/A
2:30 PM54 °FScattered clouds.No wind77%29.68 "HgN/A
2:00 PM54 °FScattered clouds.1 mph77%29.68 "HgN/A
1:30 PM54 °FScattered clouds.No wind77%29.68 "HgN/A
1:00 PM50 °FBroken clouds.2 mph88%29.68 "Hg6 mi
12:30 PM50 °FBroken clouds.No wind94%29.68 "Hg6 mi
12:00 PM48 °FFog.2 mph100%29.68 "Hg3 mi
11:30 AM48 °FLight rain. Broken clouds.2 mph100%29.68 "Hg2 mi
11:00 AM48 °FLight rain. Broken clouds.1 mph100%29.65 "Hg1 mi
10:30 AM46 °FLight rain. Partly sunny.No wind100%29.65 "Hg1 mi
10:00 AM45 °FLight rain. Partly sunny.No wind100%29.65 "Hg1 mi
9:30 AM45 °FPartly sunny.2 mph100%29.65 "Hg1 mi
9:00 AM43 °FScattered clouds.3 mph100%29.65 "Hg1 mi
8:30 AM41 °FPassing clouds.5 mph100%29.65 "Hg0 mi
8:00 AM41 °FPassing clouds.5 mph100%29.62 "Hg1 mi
7:30 AM41 °FPassing clouds.3 mph100%29.62 "Hg1 mi
7:00 AM41 °FPassing clouds.2 mph100%29.62 "Hg1 mi
6:30 AM41 °FFog.2 mph100%29.62 "Hg0 mi
6:00 AM39 °FFog.5 mph100%29.62 "Hg0 mi
5:30 AM39 °FFog.3 mph100%29.62 "Hg0 mi
4:00 AM43 °FClear.No wind100%29.62 "Hg10 mi
3:00 AM43 °FClear.No wind100%29.65 "Hg10 mi
2:30 AM43 °FClear.No wind100%29.65 "Hg10 mi
2:00 AM45 °FClear.No wind93%29.65 "Hg10 mi
1:30 AM43 °FClear.No wind100%29.65 "Hg10 mi
1:00 AM45 °FClear.No wind93%29.65 "Hg10 mi
12:30 AM45 °FClear.No wind93%29.65 "Hg10 mi
12:00 AM45 °FClear.No wind93%29.65 "Hg10 mi
11:00 PM
Apr 20
46 °FPassing clouds.No wind93%29.65 "HgN/A
10:30 PM46 °FPassing clouds.1 mph93%29.65 "HgN/A
10:00 PM48 °FScattered clouds.2 mph87%29.65 "HgN/A
9:30 PM50 °FScattered clouds.6 mph82%29.65 "HgN/A
9:00 PM54 °FScattered clouds.7 mph72%29.65 "HgN/A
8:30 PM54 °FPartly sunny.2 mph82%29.62 "HgN/A
8:00 PM54 °FPartly sunny.6 mph77%29.62 "HgN/A
7:30 PM54 °FBroken clouds.7 mph82%29.62 "HgN/A
7:00 PM55 °FScattered clouds.7 mph82%29.62 "HgN/A
6:30 PM55 °FBroken clouds.7 mph82%29.62 "HgN/A
6:00 PM55 °FBroken clouds.7 mph82%29.62 "HgN/A
Weather by CustomWeather, © 2014

See weather overview